LAN004 SCQP-SCPC

Flight info

Callsign LAN004
Flight time 0h 17m
Altitude 16000
Route TESEX4G TESEX DCT 390540S0714610W 391310S0714910W 391710S0714930W 391810S0715120W DCT 391738S0715424W
Aircraft A319/M-SDE3FGHIRWY/LB1

Departure

Time 2026-05-07 03:12
Airport La Araucanía International Airport (SCQP)

Arrival

Time 2026-05-07 03:29
Airport Pucón Airport (SCPC)
Time Latitude Longitude Altitude Speed Heading
2026-05-07 02:53 -38.92747 -72.64777 314 ft 0 kts 108°
2026-05-07 03:03 -38.92747 -72.64778 313 ft 2 kts 108°
2026-05-07 03:03 -38.92739 -72.64809 311 ft 4 kts 106°
2026-05-07 03:03 -38.92732 -72.64843 312 ft 4 kts 106°
2026-05-07 03:04 -38.92726 -72.64870 313 ft 4 kts 90°
2026-05-07 03:04 -38.92734 -72.64900 312 ft 4 kts 37°
2026-05-07 03:04 -38.92745 -72.64908 311 ft 0 kts 18°
2026-05-07 03:09 -38.92713 -72.64895 313 ft 8 kts 18°
2026-05-07 03:09 -38.92637 -72.64864 313 ft 15 kts 18°
2026-05-07 03:10 -38.92515 -72.64815 313 ft 22 kts 17°
2026-05-07 03:10 -38.92394 -72.64858 313 ft 23 kts 285°
2026-05-07 03:10 -38.92327 -72.65040 313 ft 21 kts 342°
2026-05-07 03:10 -38.92166 -72.64991 314 ft 28 kts 17°
2026-05-07 03:11 -38.91951 -72.64906 314 ft 37 kts 20°
2026-05-07 03:11 -38.91755 -72.64835 315 ft 12 kts 319°
2026-05-07 03:11 -38.91772 -72.64852 315 ft 6 kts 191°
2026-05-07 03:11 -38.91890 -72.64889 314 ft 44 kts 196°
2026-05-07 03:12 -38.92432 -72.65100 315 ft 116 kts 197°
2026-05-07 03:12 -38.93360 -72.65464 499 ft 151 kts 196°
2026-05-07 03:12 -38.94388 -72.65867 1089 ft 156 kts 198°
2026-05-07 03:12 -38.95427 -72.66263 1814 ft 156 kts 197°
2026-05-07 03:13 -38.96470 -72.66655 2457 ft 161 kts 197°
2026-05-07 03:13 -38.97602 -72.67102 2848 ft 181 kts 197°
2026-05-07 03:13 -38.98884 -72.67618 3200 ft 206 kts 198°
2026-05-07 03:13 -39.00336 -72.68194 3698 ft 231 kts 195°
2026-05-07 03:14 -39.02016 -72.68141 4409 ft 252 kts 161°
2026-05-07 03:14 -39.03392 -72.66697 5389 ft 267 kts 126°
2026-05-07 03:14 -39.03421 -72.61883 7329 ft 293 kts 68°
2026-05-07 03:15 -39.02448 -72.59549 8285 ft 298 kts 60°
2026-05-07 03:15 -39.01387 -72.57230 9228 ft 304 kts 60°
2026-05-07 03:15 -39.00302 -72.54868 10101 ft 310 kts 61°
2026-05-07 03:15 -38.99227 -72.52398 10662 ft 327 kts 66°
2026-05-07 03:16 -38.98297 -72.49624 10976 ft 349 kts 71°
2026-05-07 03:16 -38.97448 -72.46591 11242 ft 372 kts 73°
2026-05-07 03:16 -38.96618 -72.43388 11771 ft 383 kts 74°
2026-05-07 03:16 -38.95772 -72.40116 12487 ft 388 kts 74°
2026-05-07 03:17 -38.94889 -72.36816 13233 ft 393 kts 73°
2026-05-07 03:17 -38.93962 -72.33482 13976 ft 398 kts 72°
2026-05-07 03:17 -38.93016 -72.30168 14627 ft 402 kts 72°
2026-05-07 03:17 -38.92133 -72.26748 15276 ft 404 kts 79°
2026-05-07 03:18 -38.91650 -72.23192 15256 ft 401 kts 90°
2026-05-07 03:18 -38.91661 -72.19597 15247 ft 410 kts 97°
2026-05-07 03:18 -38.91777 -72.15851 15246 ft 429 kts 96°
2026-05-07 03:18 -38.91878 -72.11980 15242 ft 436 kts 96°
2026-05-07 03:19 -38.91960 -72.08093 15232 ft 428 kts 95°
2026-05-07 03:19 -38.92023 -72.04329 14756 ft 419 kts 95°
2026-05-07 03:19 -38.92085 -72.00592 13999 ft 417 kts 95°
2026-05-07 03:19 -38.92151 -71.96881 13187 ft 414 kts 95°
2026-05-07 03:20 -38.92221 -71.93214 12429 ft 409 kts 95°
2026-05-07 03:20 -38.92292 -71.89581 11676 ft 405 kts 95°
2026-05-07 03:20 -38.92364 -71.85977 10854 ft 402 kts 96°
2026-05-07 03:20 -38.92848 -71.82524 10196 ft 381 kts 118°
2026-05-07 03:21 -38.94260 -71.79904 9746 ft 340 kts 144°
2026-05-07 03:21 -38.96239 -71.78512 9065 ft 317 kts 172°
2026-05-07 03:21 -38.98309 -71.78273 8858 ft 289 kts 182°
2026-05-07 03:21 -39.00249 -71.78099 8543 ft 275 kts 180°
2026-05-07 03:22 -39.02167 -71.77879 7770 ft 278 kts 179°
2026-05-07 03:22 -39.04091 -71.77635 7168 ft 275 kts 179°
2026-05-07 03:22 -39.05977 -71.77389 6743 ft 268 kts 179°
2026-05-07 03:22 -39.07800 -71.77151 6342 ft 259 kts 179°
2026-05-07 03:23 -39.09578 -71.77078 5984 ft 251 kts 193°
2026-05-07 03:23 -39.11237 -71.77660 5665 ft 245 kts 201°
2026-05-07 03:23 -39.12837 -71.78269 5354 ft 235 kts 202°
2026-05-07 03:23 -39.14363 -71.78868 5065 ft 223 kts 202°
2026-05-07 03:24 -39.15795 -71.79450 4757 ft 207 kts 202°
2026-05-07 03:24 -39.17093 -71.79975 4530 ft 185 kts 201°
2026-05-07 03:24 -39.18279 -71.80455 4268 ft 172 kts 201°
2026-05-07 03:24 -39.19372 -71.80898 4047 ft 156 kts 201°
2026-05-07 03:25 -39.20370 -71.81299 3865 ft 148 kts 200°
2026-05-07 03:25 -39.21345 -71.81692 3703 ft 146 kts 201°
2026-05-07 03:25 -39.22337 -71.81973 3527 ft 147 kts 187°
2026-05-07 03:25 -39.23355 -71.82050 3364 ft 146 kts 188°
2026-05-07 03:26 -39.24368 -71.82136 3181 ft 146 kts 188°
2026-05-07 03:26 -39.25375 -71.82221 2967 ft 145 kts 188°
2026-05-07 03:26 -39.26387 -71.82307 2810 ft 145 kts 187°
2026-05-07 03:26 -39.27395 -71.82392 2613 ft 144 kts 187°
2026-05-07 03:27 -39.28339 -71.82594 2406 ft 133 kts 209°
2026-05-07 03:27 -39.29045 -71.83289 2228 ft 125 kts 236°
2026-05-07 03:27 -39.29550 -71.84219 2062 ft 126 kts 240°
2026-05-07 03:27 -39.29799 -71.84883 1968 ft 122 kts 258°
2026-05-07 03:28 -39.29990 -71.85990 1907 ft 121 kts 268°
2026-05-07 03:28 -39.29925 -71.87107 1701 ft 124 kts 279°
2026-05-07 03:28 -39.29788 -71.88188 1504 ft 121 kts 283°
2026-05-07 03:28 -39.29619 -71.89252 1269 ft 120 kts 286°
2026-05-07 03:29 -39.29442 -71.90319 1045 ft 120 kts 285°
2026-05-07 03:29 -39.29275 -71.91326 879 ft 103 kts 283°
2026-05-07 03:29 -39.29173 -71.91935 873 ft 35 kts 281°
2026-05-07 03:29 -39.29131 -71.92179 866 ft 17 kts 294°
2026-05-07 03:30 -39.29061 -71.92188 868 ft 2 kts 33°
2026-05-07 03:30 -39.29060 -71.92187 868 ft 1 kts 34°
2026-05-07 03:30 -39.29052 -71.92180 869 ft 2 kts 37°
2026-05-07 03:30 -39.29045 -71.92161 862 ft 3 kts 77°
2026-05-07 03:31 -39.29051 -71.92120 861 ft 6 kts 103°
2026-05-07 03:31 -39.29060 -71.92070 869 ft 0 kts 102°
2026-05-07 03:31 -39.29061 -71.92066 869 ft 0 kts 103°
2026-05-07 03:32 -39.29061 -71.92064 869 ft 1 kts 103°
2026-05-07 03:32 -39.29061 -71.92042 869 ft 3 kts 73°
2026-05-07 03:33 -39.29040 -71.92031 861 ft 4 kts 12°
2026-05-07 03:33 -39.29022 -71.92027 869 ft 0 kts 11°